Tracking 17925 objects as of 24-January-2017
HD Live streaming from Space Station
objects crossing your sky now

BREEZE-M R/B

Track BREEZE-M R/B now!


NORAD ID: 28925
Int'l Code: 2005-052B
Perigee: 6,182.7 km
Apogee: 35,358.9 km
Inclination: 19.7 °
Period: 741.7 minutes
Semi major axis: 27141 km
RCS: 0.6439 m2 (medium)
Launch date: December 29, 2005
Source: Commonwealth of Independent States (former USSR) (CIS)
Launch site: TYURATAM MISSILE AND SPACE COMPLEX (TTMTR)

Note: This is a ROCKET BODY
Your satellite tracking list
Your tracking list is empty





NASA's NSSDC Master Catalog

Two Line Element Set (TLE):
1 28925U 05052B   17022.92956530 -.00000171 +00000-0 +00000-0 0  9999
2 28925 019.6699 014.6547 5374775 171.6825 351.2492 01.94153325078423
Source of the keplerian elements: AFSPC